RYR29GX LIME-EBCI

Flight info

Callsign RYR29GX
Flight time 1h 0m
Altitude 18000
Route PEPAG N851 ABESI/N0457F360 N851 UTAVO DCT ROLSA/N0457F350 DCT LOKTA DCT TEDGO/N0458F360 L608 MISGI Z104 ODVUX/N0444F280 Z104 GESLO N852 LNO
Aircraft B738/M-SDE2E3FGHIRWXY/LB1

Departure

Time 2026-05-07 22:23
Airport Il Caravaggio International Airport (LIME)

Arrival

Time 2026-05-07 23:24
Airport Brussels South Charleroi Airport (EBCI)
Time Latitude Longitude Altitude Speed Heading
2026-05-07 21:38 45.66532 9.70703 786 ft 0 kts 195°
2026-05-07 22:14 45.66534 9.70704 786 ft 2 kts 194°
2026-05-07 22:14 45.66550 9.70710 786 ft 2 kts 195°
2026-05-07 22:14 45.66566 9.70716 786 ft 2 kts 194°
2026-05-07 22:15 45.66582 9.70721 786 ft 2 kts 180°
2026-05-07 22:15 45.66598 9.70716 786 ft 2 kts 147°
2026-05-07 22:15 45.66610 9.70700 786 ft 2 kts 123°
2026-05-07 22:15 45.66615 9.70687 786 ft 1 kts 110°
2026-05-07 22:16 45.66616 9.70686 786 ft 0 kts 109°
2026-05-07 22:18 45.66615 9.70688 786 ft 1 kts 109°
2026-05-07 22:19 45.66603 9.70751 786 ft 12 kts 104°
2026-05-07 22:19 45.66572 9.70918 786 ft 20 kts 104°
2026-05-07 22:19 45.66535 9.71108 786 ft 20 kts 110°
2026-05-07 22:19 45.66488 9.71290 786 ft 19 kts 104°
2026-05-07 22:20 45.66453 9.71473 786 ft 20 kts 105°
2026-05-07 22:20 45.66450 9.71683 786 ft 23 kts 75°
2026-05-07 22:20 45.66465 9.71900 786 ft 22 kts 103°
2026-05-07 22:20 45.66426 9.72110 786 ft 22 kts 104°
2026-05-07 22:21 45.66401 9.72249 786 ft 20 kts 104°
2026-05-07 22:21 45.66378 9.72378 786 ft 1 kts 105°
2026-05-07 22:21 45.66378 9.72379 786 ft 0 kts 105°
2026-05-07 22:22 45.66377 9.72381 786 ft 1 kts 105°
2026-05-07 22:22 45.66374 9.72429 786 ft 9 kts 79°
2026-05-07 22:22 45.66438 9.72449 786 ft 13 kts 335°
2026-05-07 22:23 45.66485 9.72301 786 ft 29 kts 285°
2026-05-07 22:23 45.66606 9.71654 786 ft 104 kts 284°
2026-05-07 22:23 45.66849 9.70342 802 ft 165 kts 287°
2026-05-07 22:23 45.67149 9.68765 1562 ft 162 kts 287°
2026-05-07 22:24 45.67187 9.67133 2286 ft 172 kts 252°
2026-05-07 22:24 45.66495 9.65718 2850 ft 185 kts 221°
2026-05-07 22:24 45.65553 9.64453 3679 ft 184 kts 223°
2026-05-07 22:24 45.64630 9.63150 4420 ft 191 kts 224°
2026-05-07 22:25 45.63701 9.61813 5221 ft 193 kts 225°
2026-05-07 22:25 45.62768 9.60452 6088 ft 189 kts 225°
2026-05-07 22:25 45.61760 9.59256 6823 ft 193 kts 202°
2026-05-07 22:25 45.60389 9.59040 7163 ft 211 kts 167°
2026-05-07 22:26 45.59093 9.60062 7579 ft 222 kts 134°
2026-05-07 22:26 45.58343 9.62034 8070 ft 235 kts 103°
2026-05-07 22:26 45.58394 9.64374 8784 ft 240 kts 72°
2026-05-07 22:26 45.59274 9.66393 9527 ft 243 kts 43°
2026-05-07 22:27 45.60698 9.67700 9983 ft 260 kts 18°
2026-05-07 22:27 45.62565 9.68006 10162 ft 284 kts 354°
2026-05-07 22:27 45.64595 9.67513 10366 ft 307 kts 342°
2026-05-07 22:27 45.66686 9.66590 10777 ft 322 kts 341°
2026-05-07 22:28 45.68886 9.65571 11039 ft 343 kts 340°
2026-05-07 22:28 45.71224 9.64474 11295 ft 362 kts 340°
2026-05-07 22:28 45.73649 9.63334 11872 ft 370 kts 340°
2026-05-07 22:28 45.76106 9.62183 12643 ft 372 kts 340°
2026-05-07 22:29 45.78580 9.61025 13451 ft 375 kts 340°
2026-05-07 22:29 45.81070 9.59862 14211 ft 378 kts 339°
2026-05-07 22:29 45.83587 9.58686 14902 ft 382 kts 339°
2026-05-07 22:29 45.86135 9.57496 15591 ft 387 kts 339°
2026-05-07 22:30 45.88710 9.56292 16281 ft 391 kts 339°
2026-05-07 22:30 45.91308 9.55076 16933 ft 395 kts 339°
2026-05-07 22:30 45.93939 9.53843 17638 ft 399 kts 339°
2026-05-07 22:30 45.96596 9.52598 18318 ft 403 kts 339°
2026-05-07 22:31 45.99283 9.51338 18813 ft 408 kts 339°
2026-05-07 22:31 46.01986 9.50068 19449 ft 410 kts 339°
2026-05-07 22:31 46.04701 9.48792 20065 ft 413 kts 339°
2026-05-07 22:31 46.07448 9.47500 20629 ft 417 kts 339°
2026-05-07 22:32 46.10222 9.46194 21171 ft 421 kts 339°
2026-05-07 22:32 46.13013 9.44878 21710 ft 424 kts 339°
2026-05-07 22:32 46.15839 9.43543 22204 ft 428 kts 339°
2026-05-07 22:32 46.18683 9.42198 22729 ft 432 kts 339°
2026-05-07 22:33 46.21522 9.40854 23232 ft 436 kts 339°
2026-05-07 22:33 46.24410 9.39486 23715 ft 438 kts 339°
2026-05-07 22:33 46.27322 9.38106 24112 ft 442 kts 338°
2026-05-07 22:33 46.30254 9.36714 24503 ft 446 kts 338°
2026-05-07 22:34 46.33214 9.35307 24905 ft 448 kts 338°
2026-05-07 22:34 46.36188 9.33892 25254 ft 452 kts 338°
2026-05-07 22:34 46.39180 9.32467 25614 ft 454 kts 338°
2026-05-07 22:34 46.42197 9.31028 25980 ft 457 kts 338°
2026-05-07 22:35 46.45233 9.29579 26350 ft 460 kts 337°
2026-05-07 22:35 46.48286 9.28119 26679 ft 464 kts 337°
2026-05-07 22:35 46.51366 9.26645 27015 ft 467 kts 337°
2026-05-07 22:35 46.54438 9.25173 27393 ft 470 kts 337°
2026-05-07 22:36 46.57544 9.23683 27783 ft 472 kts 337°
2026-05-07 22:36 46.60679 9.22177 28121 ft 476 kts 336°
2026-05-07 22:36 46.63844 9.20654 28433 ft 479 kts 336°
2026-05-07 22:36 46.67012 9.19129 28753 ft 482 kts 336°
2026-05-07 22:37 46.70209 9.17588 29122 ft 484 kts 336°
2026-05-07 22:37 46.73409 9.16045 29538 ft 484 kts 336°
2026-05-07 22:37 46.76568 9.14520 30004 ft 483 kts 336°
2026-05-07 22:37 46.79793 9.12962 30446 ft 481 kts 336°
2026-05-07 22:38 46.82967 9.11426 30886 ft 480 kts 336°
2026-05-07 22:38 46.86087 9.09914 31313 ft 479 kts 336°
2026-05-07 22:38 46.89254 9.08376 31706 ft 478 kts 336°
2026-05-07 22:38 46.92408 9.06842 32092 ft 476 kts 336°
2026-05-07 22:39 46.95539 9.05317 32522 ft 474 kts 336°
2026-05-07 22:39 46.98673 9.03789 32957 ft 472 kts 336°
2026-05-07 22:39 47.01788 9.02268 33288 ft 472 kts 336°
2026-05-07 22:39 47.04898 9.00748 33658 ft 470 kts 336°
2026-05-07 22:40 47.08002 8.99229 34068 ft 468 kts 336°
2026-05-07 22:40 47.11093 8.97714 34381 ft 468 kts 336°
2026-05-07 22:40 47.14173 8.96202 34620 ft 468 kts 337°
2026-05-07 22:40 47.17223 8.94703 34878 ft 469 kts 337°
2026-05-07 22:41 47.20321 8.93179 35160 ft 468 kts 337°
2026-05-07 22:41 47.23411 8.91659 35451 ft 467 kts 337°
2026-05-07 22:41 47.26496 8.90138 35694 ft 467 kts 337°
2026-05-07 22:41 47.29505 8.88368 35938 ft 464 kts 329°
2026-05-07 22:42 47.32282 8.85987 36080 ft 462 kts 323°
2026-05-07 22:42 47.37652 8.80721 36078 ft 464 kts 322°
2026-05-07 22:43 47.42975 8.75421 36063 ft 458 kts 322°
2026-05-07 22:43 47.48268 8.70209 36079 ft 456 kts 322°
2026-05-07 22:44 47.53566 8.65025 36082 ft 456 kts 323°
2026-05-07 22:44 47.58826 8.59878 36079 ft 456 kts 323°
2026-05-07 22:45 47.64121 8.54686 36080 ft 457 kts 323°
2026-05-07 22:45 47.69436 8.49459 36077 ft 458 kts 323°
2026-05-07 22:46 47.74754 8.44216 36087 ft 460 kts 323°
2026-05-07 22:46 47.80093 8.38938 36094 ft 461 kts 323°
2026-05-07 22:47 47.85446 8.33634 36093 ft 463 kts 323°
2026-05-07 22:47 47.90810 8.28305 36099 ft 464 kts 323°
2026-05-07 22:48 47.96150 8.22988 36099 ft 464 kts 323°
2026-05-07 22:48 48.01530 8.17616 36088 ft 465 kts 323°
2026-05-07 22:49 48.06901 8.12240 36093 ft 464 kts 323°
2026-05-07 22:49 48.12275 8.06847 36087 ft 464 kts 323°
2026-05-07 22:50 48.17631 8.01458 36087 ft 464 kts 323°
2026-05-07 22:50 48.22983 7.96059 36081 ft 463 kts 323°
2026-05-07 22:51 48.28292 7.90691 36079 ft 462 kts 323°
2026-05-07 22:51 48.33625 7.85283 36081 ft 462 kts 323°
2026-05-07 22:52 48.38952 7.79868 36075 ft 462 kts 323°
2026-05-07 22:52 48.44268 7.74450 36078 ft 461 kts 323°
2026-05-07 22:53 48.49588 7.69016 36076 ft 461 kts 323°
2026-05-07 22:53 48.54863 7.63611 36080 ft 461 kts 323°
2026-05-07 22:54 48.60182 7.58149 36077 ft 462 kts 323°
2026-05-07 22:54 48.65496 7.52677 36080 ft 462 kts 323°
2026-05-07 22:55 48.70828 7.47172 36079 ft 463 kts 323°
2026-05-07 22:55 48.76105 7.41710 36077 ft 463 kts 323°
2026-05-07 22:56 48.81428 7.36186 36081 ft 463 kts 323°
2026-05-07 22:56 48.86753 7.30646 36086 ft 464 kts 323°
2026-05-07 22:57 48.92075 7.25094 36083 ft 464 kts 323°
2026-05-07 22:57 48.97408 7.19516 36082 ft 464 kts 323°
2026-05-07 22:58 49.02718 7.13948 36081 ft 464 kts 323°
2026-05-07 22:58 49.08003 7.08391 36082 ft 464 kts 323°
2026-05-07 22:59 49.13307 7.02798 36075 ft 464 kts 323°
2026-05-07 22:59 49.18620 6.97182 36085 ft 464 kts 323°
2026-05-07 23:00 49.23918 6.91567 36087 ft 463 kts 323°
2026-05-07 23:00 49.29215 6.85938 36085 ft 463 kts 323°
2026-05-07 23:01 49.34502 6.80304 36091 ft 463 kts 323°
2026-05-07 23:01 49.39783 6.74663 36085 ft 462 kts 323°
2026-05-07 23:02 49.45066 6.69002 35447 ft 469 kts 323°
2026-05-07 23:02 49.47707 6.66167 34802 ft 466 kts 324°
2026-05-07 23:02 49.50365 6.63310 34126 ft 466 kts 324°
2026-05-07 23:02 49.53018 6.60455 33276 ft 466 kts 324°
2026-05-07 23:03 49.55676 6.57590 32482 ft 465 kts 324°
2026-05-07 23:03 49.58320 6.54738 31711 ft 463 kts 324°
2026-05-07 23:03 49.60960 6.51886 30897 ft 463 kts 324°
2026-05-07 23:03 49.63605 6.49023 30057 ft 464 kts 324°
2026-05-07 23:04 49.66254 6.46152 29073 ft 464 kts 324°
2026-05-07 23:04 49.68858 6.43327 28272 ft 461 kts 324°
2026-05-07 23:04 49.71452 6.40509 27624 ft 454 kts 324°
2026-05-07 23:04 49.74022 6.37713 26994 ft 448 kts 324°
2026-05-07 23:05 49.76552 6.34958 26334 ft 443 kts 324°
2026-05-07 23:05 49.79054 6.32228 25713 ft 438 kts 324°
2026-05-07 23:05 49.81533 6.29521 25087 ft 433 kts 324°
2026-05-07 23:05 49.83981 6.26844 24469 ft 429 kts 324°
2026-05-07 23:06 49.86407 6.24187 23859 ft 425 kts 323°
2026-05-07 23:06 49.88812 6.21550 23179 ft 422 kts 323°
2026-05-07 23:06 49.91207 6.18920 22518 ft 417 kts 323°
2026-05-07 23:06 49.93565 6.16329 21899 ft 412 kts 323°
2026-05-07 23:07 49.95867 6.13795 21312 ft 407 kts 323°
2026-05-07 23:07 49.98171 6.11256 20696 ft 404 kts 323°
2026-05-07 23:07 50.00452 6.08740 20106 ft 400 kts 323°
2026-05-07 23:07 50.02707 6.06251 19521 ft 396 kts 323°
2026-05-07 23:08 50.04223 6.04575 19126 ft 394 kts 323°
2026-05-07 23:08 50.06371 6.02042 18549 ft 391 kts 317°
2026-05-07 23:08 50.08252 5.98948 17931 ft 387 kts 308°
2026-05-07 23:08 50.09734 5.95501 17383 ft 381 kts 298°
2026-05-07 23:09 50.10989 5.91896 16814 ft 377 kts 298°
2026-05-07 23:09 50.12217 5.88317 16242 ft 374 kts 298°
2026-05-07 23:09 50.13424 5.84794 15676 ft 371 kts 298°
2026-05-07 23:09 50.14638 5.81258 15114 ft 369 kts 298°
2026-05-07 23:10 50.15847 5.77750 14554 ft 366 kts 298°
2026-05-07 23:10 50.17051 5.74263 14008 ft 364 kts 298°
2026-05-07 23:10 50.18253 5.70785 13391 ft 362 kts 298°
2026-05-07 23:10 50.19444 5.67339 12805 ft 360 kts 298°
2026-05-07 23:11 50.20630 5.63905 12243 ft 357 kts 298°
2026-05-07 23:11 50.21808 5.60494 11682 ft 354 kts 298°
2026-05-07 23:11 50.22973 5.57115 11136 ft 352 kts 298°
2026-05-07 23:11 50.24116 5.53793 10954 ft 339 kts 298°
2026-05-07 23:12 50.25199 5.50643 10803 ft 327 kts 298°
2026-05-07 23:12 50.26259 5.47556 10659 ft 316 kts 298°
2026-05-07 23:12 50.27278 5.44586 10528 ft 305 kts 298°
2026-05-07 23:12 50.28262 5.41712 10405 ft 295 kts 298°
2026-05-07 23:13 50.29216 5.38926 10278 ft 286 kts 298°
2026-05-07 23:13 50.30140 5.36222 10157 ft 277 kts 298°
2026-05-07 23:13 50.31036 5.33599 9956 ft 272 kts 298°
2026-05-07 23:13 50.31925 5.30994 9660 ft 270 kts 298°
2026-05-07 23:14 50.32805 5.28412 9369 ft 268 kts 298°
2026-05-07 23:14 50.33680 5.25840 9082 ft 266 kts 298°
2026-05-07 23:14 50.34550 5.23283 8793 ft 265 kts 298°
2026-05-07 23:14 50.35409 5.20754 8512 ft 263 kts 298°
2026-05-07 23:15 50.36254 5.18263 8245 ft 261 kts 298°
2026-05-07 23:15 50.37109 5.15742 7954 ft 260 kts 298°
2026-05-07 23:15 50.37955 5.13246 7679 ft 259 kts 299°
2026-05-07 23:15 50.38797 5.10756 7401 ft 258 kts 299°
2026-05-07 23:16 50.39632 5.08286 7126 ft 257 kts 299°
2026-05-07 23:16 50.40468 5.05811 6848 ft 256 kts 299°
2026-05-07 23:16 50.41301 5.03344 6573 ft 255 kts 299°
2026-05-07 23:16 50.42129 5.00887 6283 ft 255 kts 299°
2026-05-07 23:17 50.42953 4.98438 5975 ft 254 kts 299°
2026-05-07 23:17 50.43777 4.95990 5700 ft 253 kts 299°
2026-05-07 23:17 50.44591 4.93567 5526 ft 248 kts 299°
2026-05-07 23:17 50.45372 4.91239 5405 ft 241 kts 299°
2026-05-07 23:18 50.46145 4.88936 5289 ft 234 kts 299°
2026-05-07 23:18 50.46891 4.86709 5182 ft 226 kts 299°
2026-05-07 23:18 50.47609 4.84562 5086 ft 219 kts 299°
2026-05-07 23:18 50.48311 4.82465 4926 ft 215 kts 300°
2026-05-07 23:19 50.49002 4.80400 4695 ft 210 kts 300°
2026-05-07 23:19 50.49675 4.78387 4442 ft 205 kts 300°
2026-05-07 23:19 50.50320 4.76455 4208 ft 200 kts 300°
2026-05-07 23:19 50.50960 4.74537 4003 ft 195 kts 300°
2026-05-07 23:20 50.51586 4.72658 3788 ft 193 kts 300°
2026-05-07 23:20 50.52203 4.70804 3608 ft 190 kts 300°
2026-05-07 23:20 50.52685 4.68904 3392 ft 187 kts 275°
2026-05-07 23:20 50.52337 4.67021 3226 ft 179 kts 243°
2026-05-07 23:21 50.51789 4.65246 3087 ft 181 kts 245°
2026-05-07 23:21 50.51263 4.63468 3003 ft 177 kts 246°
2026-05-07 23:21 50.50761 4.61686 2790 ft 181 kts 247°
2026-05-07 23:21 50.50244 4.59889 2559 ft 179 kts 246°
2026-05-07 23:22 50.49735 4.58146 2327 ft 169 kts 246°
2026-05-07 23:22 50.49262 4.56546 2096 ft 155 kts 246°
2026-05-07 23:22 50.48839 4.55091 1945 ft 142 kts 247°
2026-05-07 23:22 50.48427 4.53675 1705 ft 143 kts 247°
2026-05-07 23:23 50.48013 4.52253 1465 ft 144 kts 246°
2026-05-07 23:23 50.47606 4.50847 1225 ft 139 kts 246°
2026-05-07 23:23 50.47201 4.49472 990 ft 139 kts 245°
2026-05-07 23:23 50.46801 4.48089 786 ft 139 kts 245°
2026-05-07 23:24 50.46405 4.46720 630 ft 137 kts 245°
2026-05-07 23:24 50.46057 4.45527 624 ft 96 kts 245°
2026-05-07 23:24 50.45884 4.44935 618 ft 18 kts 246°
2026-05-07 23:24 50.45932 4.44786 620 ft 17 kts 335°
2026-05-07 23:25 50.46020 4.44801 617 ft 12 kts 45°
2026-05-07 23:25 50.46056 4.44905 620 ft 14 kts 64°
2026-05-07 23:25 50.46112 4.45098 620 ft 22 kts 66°
2026-05-07 23:25 50.46172 4.45305 617 ft 19 kts 65°
2026-05-07 23:26 50.46228 4.45497 616 ft 21 kts 65°
2026-05-07 23:26 50.46293 4.45721 619 ft 24 kts 65°
2026-05-07 23:26 50.46365 4.45969 612 ft 25 kts 65°
2026-05-07 23:26 50.46432 4.46200 616 ft 21 kts 66°
2026-05-07 23:27 50.46537 4.46561 614 ft 20 kts 65°
2026-05-07 23:27 50.46592 4.46752 618 ft 13 kts 65°
2026-05-07 23:27 50.46668 4.46803 612 ft 13 kts 24°
2026-05-07 23:28 50.46718 4.46918 612 ft 11 kts 40°
2026-05-07 23:28 50.46782 4.46892 617 ft 7 kts 335°
2026-05-07 23:28 50.46806 4.46875 620 ft 1 kts 335°
2026-05-07 23:28 50.46806 4.46874 619 ft 0 kts 335°